Time,TemperatureF,DewpointF,PressureIn,WindDirection,WindDirectionDegrees,WindSpeedMPH,WindSpeedGustMPH,Humidity,HourlyPrecipIn,Conditions,Clouds,dailyrainin,SoftwareType,DateUTC
2013-06-16 00:00:00,62.8,57.9,30.05,South,173,0.0,0.0,84,0.00,CLR,FEW,0.00,WeatherDisplay:10.37,2013-06-15 22:00:00,
2013-06-16 00:30:00,62.5,57.9,30.05,South,173,0.0,2.0,85,0.00,CLR,FEW,0.00,WeatherDisplay:10.37,2013-06-15 22:30:00,
2013-06-16 01:00:00,62.2,58.0,30.05,South,173,0.0,0.0,86,0.00,CLR,FEW,0.00,WeatherDisplay:10.37,2013-06-15 23:00:00,
2013-06-16 01:30:00,63.1,59.2,30.05,South,172,0.0,3.0,87,0.00,CLR,FEW,0.00,WeatherDisplay:10.37,2013-06-15 23:30:00,
2013-06-16 02:00:00,63.4,58.8,30.04,South,172,0.0,2.0,85,0.00,CLR,FEW,0.00,WeatherDisplay:10.37,2013-06-16 00:00:00,
2013-06-16 02:30:00,63.1,58.5,30.04,South,172,0.0,0.0,85,0.00,CLR,FEW,0.00,WeatherDisplay:10.37,2013-06-16 00:30:00,
2013-06-16 03:00:00,62.5,58.2,30.03,South,172,0.0,0.0,86,0.00,CLR,FEW,0.00,WeatherDisplay:10.37,2013-06-16 01:00:00,
2013-06-16 03:30:00,61.9,58.0,30.03,South,172,0.0,0.0,87,0.00,CLR,FEW,0.00,WeatherDisplay:10.37,2013-06-16 01:30:00,
2013-06-16 04:00:00,61.8,58.5,30.03,South,172,0.0,0.0,89,0.00,CLR,FEW,0.00,WeatherDisplay:10.37,2013-06-16 02:00:00,
2013-06-16 04:30:00,61.5,58.2,30.03,South,172,0.0,0.0,89,0.00,CLR,FEW,0.00,WeatherDisplay:10.37,2013-06-16 02:30:00,
2013-06-16 05:00:00,61.2,58.2,30.04,South,172,0.0,0.0,90,0.00,CLR,FEW,0.00,WeatherDisplay:10.37,2013-06-16 03:00:00,
2013-06-16 05:30:00,60.3,57.4,30.04,South,172,0.0,0.0,90,0.00,CLR,FEW,0.00,WeatherDisplay:10.37,2013-06-16 03:30:00,
2013-06-16 06:00:00,60.4,57.7,30.04,South,172,0.0,0.0,91,0.00,CLR,FEW,0.00,WeatherDisplay:10.37,2013-06-16 04:00:00,
2013-06-16 06:30:00,60.7,58.1,30.05,South,172,0.0,0.0,91,0.00,CLR,FEW,0.00,WeatherDisplay:10.37,2013-06-16 04:30:00,
2013-06-16 07:00:00,61.3,58.7,30.05,South,172,0.0,0.0,91,0.00,CLR,FEW,0.00,WeatherDisplay:10.37,2013-06-16 05:00:00,
2013-06-16 07:30:00,65.4,62.7,30.06,South,172,0.0,0.0,91,0.00,CLR,FEW,0.00,WeatherDisplay:10.37,2013-06-16 05:30:00,
2013-06-16 08:00:00,69.3,61.8,30.06,South,172,0.0,0.0,77,0.00,CLR,FEW,0.00,WeatherDisplay:10.37,2013-06-16 06:00:00,
2013-06-16 08:30:00,71.3,60.2,30.06,South,172,0.0,0.0,68,0.00,CLR,FEW,0.00,WeatherDisplay:10.37,2013-06-16 06:30:00,
2013-06-16 09:00:00,71.9,60.4,30.07,South,175,0.0,0.0,67,0.00,CLR,FEW,0.00,WeatherDisplay:10.37,2013-06-16 07:00:00,
2013-06-16 09:30:00,72.8,61.7,30.07,South,189,0.0,0.0,68,0.00,CLR,FEW,0.00,WeatherDisplay:10.37,2013-06-16 07:30:00,
2013-06-16 10:00:00,73.7,62.1,30.07,NW,308,0.0,0.0,67,0.00,CLR,FEW,0.00,WeatherDisplay:10.37,2013-06-16 08:00:00,
2013-06-16 10:30:00,75.4,63.7,30.07,NW,317,0.0,0.0,67,0.00,CLR,FEW,0.00,WeatherDisplay:10.37,2013-06-16 08:30:00,
2013-06-16 11:00:00,75.9,63.7,30.07,WNW,299,0.0,0.0,66,0.00,CLR,FEW,0.00,WeatherDisplay:10.37,2013-06-16 09:00:00,
2013-06-16 11:30:00,77.4,64.3,30.07,WNW,293,0.0,4.0,64,0.00,CLR,FEW,0.00,WeatherDisplay:10.37,2013-06-16 09:30:00,
2013-06-16 12:00:00,77.9,64.7,30.06,WNW,302,1.0,6.0,64,0.00,CLR,FEW,0.00,WeatherDisplay:10.37,2013-06-16 10:00:00,
2013-06-16 12:30:00,79.0,65.8,30.06,NW,320,1.0,5.0,64,0.00,CLR,FEW,0.00,WeatherDisplay:10.37,2013-06-16 10:30:00,
2013-06-16 13:00:00,80.2,66.9,30.06,WNW,284,1.0,6.0,64,0.00,CLR,FEW,0.00,WeatherDisplay:10.37,2013-06-16 11:00:00,
2013-06-16 13:30:00,81.4,66.2,30.06,WNW,290,1.0,6.0,60,0.00,CLR,FEW,0.00,WeatherDisplay:10.37,2013-06-16 11:30:00,
2013-06-16 14:00:00,82.6,66.8,30.06,WNW,297,2.0,5.0,59,0.00,CLR,FEW,0.00,WeatherDisplay:10.37,2013-06-16 12:00:00,
2013-06-16 14:30:00,83.2,67.9,30.05,SW,234,0.0,5.0,60,0.00,CLR,FEW,0.00,WeatherDisplay:10.37,2013-06-16 12:30:00,
2013-06-16 15:00:00,84.1,66.7,30.04,South,172,0.0,8.0,56,0.00,CLR,FEW,0.00,WeatherDisplay:10.37,2013-06-16 13:00:00,
2013-06-16 15:30:00,84.4,68.0,30.04,WNW,300,2.0,7.0,58,0.00,CLR,FEW,0.00,WeatherDisplay:10.37,2013-06-16 13:30:00,
2013-06-16 16:00:00,83.4,66.6,30.04,WNW,286,1.0,7.0,57,0.00,CLR,FEW,0.00,WeatherDisplay:10.37,2013-06-16 14:00:00,
2013-06-16 16:30:00,83.1,66.3,30.03,WNW,285,1.0,6.0,57,0.00,CLR,FEW,0.00,WeatherDisplay:10.37,2013-06-16 14:30:00,
2013-06-16 17:00:00,82.9,65.6,30.03,WNW,291,1.0,5.0,56,0.00,CLR,FEW,0.00,WeatherDisplay:10.37,2013-06-16 15:00:00,
2013-06-16 17:30:00,82.1,64.3,30.03,WSW,249,0.0,5.0,55,0.00,CLR,FEW,0.00,WeatherDisplay:10.37,2013-06-16 15:30:00,
2013-06-16 18:00:00,81.9,64.6,30.02,WNW,299,0.0,4.0,56,0.00,CLR,FEW,0.00,WeatherDisplay:10.37,2013-06-16 16:00:00,
2013-06-16 18:30:00,81.0,64.3,30.02,WNW,303,0.0,4.0,57,0.00,CLR,FEW,0.00,WeatherDisplay:10.37,2013-06-16 16:30:00,
2013-06-16 19:00:00,78.8,63.8,30.02,WNW,296,0.0,3.0,60,0.00,CLR,FEW,0.00,WeatherDisplay:10.37,2013-06-16 17:00:00,
2013-06-16 19:30:00,77.4,63.3,30.02,WNW,296,0.0,3.0,62,0.00,CLR,FEW,0.00,WeatherDisplay:10.37,2013-06-16 17:30:00,
2013-06-16 20:00:00,76.0,62.9,30.02,WNW,296,0.0,3.0,64,0.00,CLR,FEW,0.00,WeatherDisplay:10.37,2013-06-16 18:00:00,
2013-06-16 20:30:00,74.3,63.1,30.02,WNW,296,0.0,0.0,68,0.00,CLR,FEW,0.00,WeatherDisplay:10.37,2013-06-16 18:30:00,
2013-06-16 21:00:00,71.3,59.4,30.02,WNW,296,0.0,0.0,66,0.00,CLR,FEW,0.00,WeatherDisplay:10.37,2013-06-16 19:00:00,
2013-06-16 21:30:00,69.3,58.3,30.03,WNW,296,0.0,0.0,68,0.00,CLR,FEW,0.00,WeatherDisplay:10.37,2013-06-16 19:30:00,
2013-06-16 22:00:00,68.3,58.9,30.03,WNW,296,0.0,1.0,72,0.00,CLR,FEW,0.00,WeatherDisplay:10.37,2013-06-16 20:00:00,
2013-06-16 22:30:00,67.6,59.4,30.03,WNW,296,0.0,0.0,75,0.00,CLR,FEW,0.00,WeatherDisplay:10.37,2013-06-16 20:30:00,
2013-06-16 23:00:00,67.0,59.2,30.04,WNW,296,0.0,0.0,76,0.00,CLR,FEW,0.00,WeatherDisplay:10.37,2013-06-16 21:00:00,
2013-06-16 23:30:00,67.3,59.1,30.04,WNW,296,0.0,0.0,75,0.00,CLR,FEW,0.00,WeatherDisplay:10.37,2013-06-16 21:30:00,